This is the latest recevied weather packets stored in our database for station/object EA5JJP-10. If no packets are shown the sender has not sent any weather packets the latest 10 day(s).
| Time | Temp. | Humidity | Pressure | Rain* | Wind** | Luminosity | Snow |
|---|---|---|---|---|---|---|---|
| 1777114022 | 11.11° C | 89% | 914.4 hPa | - | - | - | - |
| 1777113124 | 10° C | 92% | 914.5 hPa | - | - | - | - |
| 1777112225 | 8.89° C | 91% | 914.5 hPa | - | - | - | - |
| 1777111326 | 9.44° C | 89% | 914.5 hPa | - | - | - | - |
| 1777110428 | 10° C | 84% | 914.5 hPa | - | - | - | - |
| 1777109530 | 10° C | 91% | 914.5 hPa | - | - | - | - |
| 1777108630 | 9.44° C | 92% | 914.3 hPa | - | - | - | - |
| 1777107732 | 10° C | 92% | 914.4 hPa | - | - | - | - |
| 1777106833 | 10° C | 93% | 914.3 hPa | - | - | - | - |
| 1777105934 | 10° C | 93% | 914.3 hPa | - | - | - | - |
| 1777105035 | 10° C | 93% | 914.2 hPa | - | - | - | - |
| 1777104136 | 10° C | 93% | 914.1 hPa | - | - | - | - |
| 1777103237 | 10° C | 93% | 914 hPa | - | - | - | - |
| 1777102338 | 10° C | 93% | 913.9 hPa | - | - | - | - |
| 1777101440 | 10° C | 93% | 913.8 hPa | - | - | - | - |
| 1777100542 | 10° C | 93% | 913.7 hPa | - | - | - | - |
| 1777099642 | 10° C | 93% | 913.5 hPa | - | - | - | - |
| 1777098743 | 9.44° C | 93% | 913.4 hPa | - | - | - | - |
| 1777097844 | 9.44° C | 92% | 913.3 hPa | - | - | - | - |
| 1777096946 | 8.89° C | 92% | 913.1 hPa | - | - | - | - |
| 1777096047 | 8.89° C | 92% | 913 hPa | - | - | - | - |
| 1777095148 | 8.33° C | 91% | 913 hPa | - | - | - | - |
| 1777094250 | 8.33° C | 91% | 912.8 hPa | - | - | - | - |
| 1777093351 | 7.78° C | 90% | 912.8 hPa | - | - | - | - |
| 1777092453 | 7.78° C | 91% | 912.7 hPa | - | - | - | - |
* Rain since midnight (hover to see other rain measurements)
** Current wind speed in m/s (hover to see current wind gust speed)